{"data":{"norad_id":56909,"epoch":"2026-09-20T16:10:54.565824Z","epoch_age_seconds":102445,"freshness":"FRESH","line1":"1 56909U 23083AK  26263.67424266 -.00000181  00000+0  29687-5 0  9998","line2":"2 56909  43.0049  49.9298 0002029 273.5964  86.4655 15.27573942181729","mean_motion":15.27573942,"eccentricity":0.0002029,"inclination_deg":43.0049,"raan_deg":49.9298,"arg_perigee_deg":273.5964,"mean_anomaly_deg":86.4655,"bstar":2.9687e-6,"rev_number":18172,"period_min":94.267122553469,"perigee_km":481.67509759148,"apogee_km":484.45937427043,"semimajor_km":6861.204235931,"source":"CELESTRAK","updated_at":"2026-09-21T09:00:33.526437Z"}}